GAPXJ EGHC-EGLF

Flight info

Callsign GAPXJ
Flight time N/A
Altitude 8000
Route BHD DCT SAM
Aircraft PA24/L-VGD/A

Departure

Time N/A
Airport Land's End Airport (EGHC)

Arrival

Time 2026-04-18 10:39
Airport Farnborough Airport (EGLF)
Time Latitude Longitude Altitude Speed Heading
2026-04-18 09:35 50.26754 -4.45645 8316 ft 167 kts 76°
2026-04-18 09:35 50.26999 -4.43859 8316 ft 167 kts 76°
2026-04-18 09:36 50.27241 -4.42085 8313 ft 167 kts 76°
2026-04-18 09:36 50.27486 -4.40307 8312 ft 167 kts 76°
2026-04-18 09:36 50.27727 -4.38523 8311 ft 168 kts 76°
2026-04-18 09:36 50.27971 -4.36741 8311 ft 168 kts 76°
2026-04-18 09:37 50.28216 -4.34955 8313 ft 168 kts 76°
2026-04-18 09:37 50.28460 -4.33175 8310 ft 167 kts 76°
2026-04-18 09:37 50.28703 -4.31396 8309 ft 167 kts 76°
2026-04-18 09:37 50.28947 -4.29616 8309 ft 167 kts 76°
2026-04-18 09:38 50.29191 -4.27838 8310 ft 167 kts 76°
2026-04-18 09:38 50.29433 -4.26053 8316 ft 167 kts 76°
2026-04-18 09:38 50.29674 -4.24273 8314 ft 167 kts 76°
2026-04-18 09:38 50.29914 -4.22488 8312 ft 168 kts 76°
2026-04-18 09:39 50.30157 -4.20705 8307 ft 168 kts 76°
2026-04-18 09:39 50.30400 -4.18925 8311 ft 168 kts 76°
2026-04-18 09:39 50.30640 -4.17166 8312 ft 167 kts 76°
2026-04-18 09:39 50.30884 -4.15386 8312 ft 168 kts 76°
2026-04-18 09:40 50.31128 -4.13596 8311 ft 168 kts 76°
2026-04-18 09:40 50.31372 -4.11816 8312 ft 168 kts 76°
2026-04-18 09:40 50.31615 -4.10030 8309 ft 168 kts 76°
2026-04-18 09:40 50.31861 -4.08231 8311 ft 169 kts 76°
2026-04-18 09:41 50.32118 -4.06431 8312 ft 170 kts 75°
2026-04-18 09:41 50.32358 -4.04621 8312 ft 170 kts 76°
2026-04-18 09:41 50.32601 -4.02817 8310 ft 170 kts 76°
2026-04-18 09:41 50.32855 -4.01011 8313 ft 170 kts 76°
2026-04-18 09:42 50.33096 -3.99209 8308 ft 169 kts 76°
2026-04-18 09:42 50.33333 -3.97401 8312 ft 169 kts 77°
2026-04-18 09:42 50.33574 -3.95601 8310 ft 169 kts 76°
2026-04-18 09:42 50.33820 -3.93808 8309 ft 168 kts 76°
2026-04-18 09:43 50.34061 -3.92016 8306 ft 168 kts 76°
2026-04-18 09:43 50.34305 -3.90232 8308 ft 168 kts 76°
2026-04-18 09:43 50.34552 -3.88446 8310 ft 168 kts 76°
2026-04-18 09:43 50.34792 -3.86660 8311 ft 168 kts 76°
2026-04-18 09:44 50.35033 -3.84865 8309 ft 168 kts 76°
2026-04-18 09:44 50.35278 -3.83068 8310 ft 168 kts 76°
2026-04-18 09:44 50.35521 -3.81303 8308 ft 168 kts 76°
2026-04-18 09:44 50.35767 -3.79516 8307 ft 168 kts 76°
2026-04-18 09:45 50.36019 -3.77733 8306 ft 168 kts 76°
2026-04-18 09:45 50.36260 -3.75947 8307 ft 168 kts 76°
2026-04-18 09:45 50.36494 -3.74156 8308 ft 168 kts 77°
2026-04-18 09:45 50.36738 -3.72367 8303 ft 168 kts 76°
2026-04-18 09:46 50.36974 -3.70578 8304 ft 168 kts 77°
2026-04-18 09:46 50.37220 -3.68795 8304 ft 168 kts 76°
2026-04-18 09:46 50.37466 -3.67009 8305 ft 168 kts 76°
2026-04-18 09:46 50.37708 -3.65220 8308 ft 168 kts 76°
2026-04-18 09:47 50.37947 -3.63431 8304 ft 167 kts 76°
2026-04-18 09:47 50.38192 -3.61646 8303 ft 168 kts 76°
2026-04-18 09:47 50.38436 -3.59858 8299 ft 168 kts 76°
2026-04-18 09:47 50.38679 -3.58066 8303 ft 168 kts 76°
2026-04-18 09:48 50.38923 -3.56276 8306 ft 168 kts 76°
2026-04-18 09:48 50.39166 -3.54479 8306 ft 168 kts 76°
2026-04-18 09:48 50.39422 -3.52691 8306 ft 168 kts 75°
2026-04-18 09:48 50.39684 -3.50902 8305 ft 169 kts 75°
2026-04-18 09:49 50.39944 -3.49107 8303 ft 169 kts 75°
2026-04-18 09:49 50.40209 -3.47314 8299 ft 169 kts 75°
2026-04-18 09:49 50.40479 -3.45527 8300 ft 168 kts 71°
2026-04-18 09:49 50.40880 -3.43813 8304 ft 168 kts 68°
2026-04-18 09:50 50.41267 -3.42089 8300 ft 168 kts 68°
2026-04-18 09:50 50.41657 -3.40391 8300 ft 167 kts 67°
2026-04-18 09:50 50.42073 -3.38691 8300 ft 167 kts 65°
2026-04-18 09:50 50.42514 -3.37009 8299 ft 167 kts 64°
2026-04-18 09:51 50.42974 -3.35340 8301 ft 167 kts 63°
2026-04-18 09:51 50.43453 -3.33677 8299 ft 167 kts 62°
2026-04-18 09:51 50.43944 -3.32022 8301 ft 167 kts 62°
2026-04-18 09:51 50.44443 -3.30383 8296 ft 166 kts 61°
2026-04-18 09:52 50.44947 -3.28745 8298 ft 167 kts 61°
2026-04-18 09:52 50.45455 -3.27112 8298 ft 167 kts 61°
2026-04-18 09:52 50.45963 -3.25479 8302 ft 167 kts 61°
2026-04-18 09:52 50.46469 -3.23843 8296 ft 167 kts 61°
2026-04-18 09:53 50.46973 -3.22204 8294 ft 167 kts 61°
2026-04-18 09:53 50.47460 -3.20583 8297 ft 167 kts 62°
2026-04-18 09:53 50.47950 -3.18931 8298 ft 167 kts 62°
2026-04-18 09:53 50.48434 -3.17274 8299 ft 167 kts 63°
2026-04-18 09:54 50.48914 -3.15613 8296 ft 167 kts 63°
2026-04-18 09:54 50.49385 -3.13946 8295 ft 167 kts 63°
2026-04-18 09:54 50.49846 -3.12272 8296 ft 167 kts 64°
2026-04-18 09:54 50.50301 -3.10593 8296 ft 167 kts 64°
2026-04-18 09:55 50.50751 -3.08911 8298 ft 167 kts 64°
2026-04-18 09:55 50.51199 -3.07220 8299 ft 167 kts 65°
2026-04-18 09:55 50.51641 -3.05527 8293 ft 167 kts 65°
2026-04-18 09:55 50.52077 -3.03833 8296 ft 167 kts 65°
2026-04-18 09:56 50.52510 -3.02133 8297 ft 168 kts 65°
2026-04-18 09:56 50.52943 -3.00429 8293 ft 168 kts 66°
2026-04-18 09:56 50.53375 -2.98724 8292 ft 168 kts 66°
2026-04-18 09:56 50.53804 -2.97014 8293 ft 168 kts 66°
2026-04-18 09:57 50.54234 -2.95306 8291 ft 168 kts 66°
2026-04-18 09:57 50.54663 -2.93594 8290 ft 168 kts 66°
2026-04-18 09:57 50.55090 -2.91905 8294 ft 168 kts 66°
2026-04-18 09:57 50.55522 -2.90197 8291 ft 168 kts 66°
2026-04-18 09:58 50.55955 -2.88488 8293 ft 168 kts 65°
2026-04-18 09:58 50.56388 -2.86780 8296 ft 169 kts 66°
2026-04-18 09:58 50.56823 -2.85064 8293 ft 169 kts 65°
2026-04-18 09:58 50.57258 -2.83352 8291 ft 168 kts 65°
2026-04-18 09:59 50.57696 -2.81647 8290 ft 168 kts 65°
2026-04-18 09:59 50.58137 -2.79939 8286 ft 168 kts 65°
2026-04-18 09:59 50.58579 -2.78229 8289 ft 169 kts 65°
2026-04-18 10:00 50.59468 -2.74813 8287 ft 169 kts 65°
2026-04-18 10:00 50.59923 -2.73105 8288 ft 169 kts 64°
2026-04-18 10:00 50.60370 -2.71396 8288 ft 169 kts 65°
2026-04-18 10:00 50.60814 -2.69685 8290 ft 169 kts 65°
2026-04-18 10:01 50.61254 -2.67971 8293 ft 169 kts 65°
2026-04-18 10:01 50.61692 -2.66257 8283 ft 169 kts 65°
2026-04-18 10:01 50.62134 -2.64543 8286 ft 169 kts 65°
2026-04-18 10:01 50.62573 -2.62849 8287 ft 169 kts 65°
2026-04-18 10:02 50.63014 -2.61137 8284 ft 169 kts 65°
2026-04-18 10:02 50.63460 -2.59418 8283 ft 169 kts 65°
2026-04-18 10:02 50.63905 -2.57701 8286 ft 169 kts 65°
2026-04-18 10:02 50.64349 -2.55985 8283 ft 170 kts 65°
2026-04-18 10:03 50.64795 -2.54263 8286 ft 170 kts 65°
2026-04-18 10:03 50.65239 -2.52544 8287 ft 169 kts 66°
2026-04-18 10:03 50.65683 -2.50826 8286 ft 169 kts 66°
2026-04-18 10:03 50.66126 -2.49111 8283 ft 169 kts 66°
2026-04-18 10:04 50.66566 -2.47391 8287 ft 169 kts 66°
2026-04-18 10:04 50.67010 -2.45677 8285 ft 169 kts 65°
2026-04-18 10:04 50.67457 -2.43965 8285 ft 169 kts 65°
2026-04-18 10:04 50.67903 -2.42251 8284 ft 169 kts 65°
2026-04-18 10:05 50.68345 -2.40541 8282 ft 169 kts 65°
2026-04-18 10:05 50.68793 -2.38827 8281 ft 169 kts 65°
2026-04-18 10:05 50.69234 -2.37117 8282 ft 169 kts 66°
2026-04-18 10:05 50.69674 -2.35401 8280 ft 169 kts 66°
2026-04-18 10:06 50.70112 -2.33684 8282 ft 169 kts 66°
2026-04-18 10:06 50.70549 -2.31964 8282 ft 169 kts 66°
2026-04-18 10:06 50.70840 -2.30823 8279 ft 169 kts 66°
2026-04-18 10:06 50.71283 -2.29104 8283 ft 169 kts 66°
2026-04-18 10:07 50.71723 -2.27390 8277 ft 169 kts 66°
2026-04-18 10:07 50.72168 -2.25666 8280 ft 170 kts 66°
2026-04-18 10:07 50.72612 -2.23940 8278 ft 169 kts 66°
2026-04-18 10:07 50.73060 -2.22221 8281 ft 169 kts 65°
2026-04-18 10:08 50.73505 -2.20505 8276 ft 169 kts 66°
2026-04-18 10:08 50.73947 -2.18775 8276 ft 170 kts 66°
2026-04-18 10:08 50.74394 -2.17048 8274 ft 170 kts 66°
2026-04-18 10:08 50.74839 -2.15327 8274 ft 169 kts 66°
2026-04-18 10:09 50.75279 -2.13602 8275 ft 169 kts 66°
2026-04-18 10:09 50.75719 -2.11882 8275 ft 169 kts 66°
2026-04-18 10:09 50.76161 -2.10159 8272 ft 169 kts 66°
2026-04-18 10:09 50.76602 -2.08436 8274 ft 169 kts 66°
2026-04-18 10:10 50.77046 -2.06709 8272 ft 169 kts 66°
2026-04-18 10:10 50.77490 -2.04982 8273 ft 170 kts 66°
2026-04-18 10:10 50.77932 -2.03256 8273 ft 170 kts 66°
2026-04-18 10:10 50.78377 -2.01528 8272 ft 170 kts 66°
2026-04-18 10:11 50.78825 -1.99806 8272 ft 169 kts 66°
2026-04-18 10:11 50.79261 -1.98101 8271 ft 170 kts 66°
2026-04-18 10:11 50.79705 -1.96369 8269 ft 170 kts 66°
2026-04-18 10:11 50.80152 -1.94640 8272 ft 170 kts 66°
2026-04-18 10:12 50.80600 -1.92911 8274 ft 170 kts 66°
2026-04-18 10:12 50.81048 -1.91177 8270 ft 170 kts 66°
2026-04-18 10:12 50.81492 -1.89441 8272 ft 170 kts 66°
2026-04-18 10:12 50.81932 -1.87704 8272 ft 170 kts 67°
2026-04-18 10:13 50.82372 -1.85970 8272 ft 170 kts 67°
2026-04-18 10:13 50.82813 -1.84240 8273 ft 170 kts 67°
2026-04-18 10:13 50.83256 -1.82512 8273 ft 170 kts 66°
2026-04-18 10:13 50.83700 -1.80777 8273 ft 170 kts 66°
2026-04-18 10:14 50.84143 -1.79038 8274 ft 170 kts 66°
2026-04-18 10:14 50.84588 -1.77302 8272 ft 170 kts 66°
2026-04-18 10:14 50.85036 -1.75563 8272 ft 170 kts 66°
2026-04-18 10:14 50.85481 -1.73828 8273 ft 170 kts 66°
2026-04-18 10:15 50.85925 -1.72097 8272 ft 171 kts 67°
2026-04-18 10:15 50.86369 -1.70349 8274 ft 171 kts 67°
2026-04-18 10:15 50.86816 -1.68606 8272 ft 170 kts 66°
2026-04-18 10:15 50.87262 -1.66872 8271 ft 170 kts 67°
2026-04-18 10:16 50.87707 -1.65132 8273 ft 170 kts 66°
2026-04-18 10:16 50.88146 -1.63412 8271 ft 171 kts 67°
2026-04-18 10:16 50.88590 -1.61674 8269 ft 171 kts 67°
2026-04-18 10:16 50.89040 -1.59910 8270 ft 170 kts 66°
2026-04-18 10:17 50.89479 -1.58189 8271 ft 171 kts 66°
2026-04-18 10:17 50.89925 -1.56450 8275 ft 171 kts 66°
2026-04-18 10:17 50.90373 -1.54704 8273 ft 170 kts 67°
2026-04-18 10:17 50.90813 -1.52964 8274 ft 170 kts 67°
2026-04-18 10:18 50.91258 -1.51221 8273 ft 171 kts 66°
2026-04-18 10:18 50.91707 -1.49471 8273 ft 171 kts 66°
2026-04-18 10:18 50.92155 -1.47721 8273 ft 171 kts 66°
2026-04-18 10:18 50.92603 -1.45976 8274 ft 171 kts 67°
2026-04-18 10:19 50.93047 -1.44226 8274 ft 171 kts 67°
2026-04-18 10:19 50.93493 -1.42471 8273 ft 172 kts 67°
2026-04-18 10:19 50.93941 -1.40714 8273 ft 171 kts 67°
2026-04-18 10:19 50.94389 -1.38964 8271 ft 171 kts 67°
2026-04-18 10:20 50.94834 -1.37215 8273 ft 171 kts 67°
2026-04-18 10:20 50.95280 -1.35463 8272 ft 171 kts 68°
2026-04-18 10:20 50.95729 -1.33714 8272 ft 171 kts 66°
2026-04-18 10:20 50.96195 -1.31975 8273 ft 171 kts 66°
2026-04-18 10:21 50.96663 -1.30239 8273 ft 171 kts 66°
2026-04-18 10:21 50.97130 -1.28504 8274 ft 171 kts 66°
2026-04-18 10:21 50.97598 -1.26766 8273 ft 171 kts 66°
2026-04-18 10:21 50.98051 -1.25090 8271 ft 171 kts 66°
2026-04-18 10:22 50.98520 -1.23352 8275 ft 171 kts 66°
2026-04-18 10:22 50.98989 -1.21640 8274 ft 171 kts 65°
2026-04-18 10:22 50.99461 -1.19904 8271 ft 172 kts 66°
2026-04-18 10:22 50.99938 -1.18175 8272 ft 172 kts 65°
2026-04-18 10:23 51.00415 -1.16427 8271 ft 172 kts 66°
2026-04-18 10:23 51.00890 -1.14693 8248 ft 168 kts 65°
2026-04-18 10:23 51.01362 -1.12970 7982 ft 174 kts 65°
2026-04-18 10:23 51.01845 -1.11210 7784 ft 173 kts 65°
2026-04-18 10:24 51.02316 -1.09482 7615 ft 170 kts 65°
2026-04-18 10:24 51.02786 -1.07736 7331 ft 172 kts 65°
2026-04-18 10:24 51.03256 -1.05990 7098 ft 171 kts 65°
2026-04-18 10:24 51.03721 -1.04250 6867 ft 170 kts 66°
2026-04-18 10:25 51.04182 -1.02527 6659 ft 169 kts 65°
2026-04-18 10:25 51.04639 -1.00805 6429 ft 169 kts 65°
2026-04-18 10:25 51.05104 -0.99094 6205 ft 168 kts 64°
2026-04-18 10:25 51.05558 -0.97385 5988 ft 168 kts 66°
2026-04-18 10:26 51.06063 -0.95722 5761 ft 168 kts 52°
2026-04-18 10:26 51.07004 -0.94613 5490 ft 166 kts 26°
2026-04-18 10:26 51.07956 -0.93691 5382 ft 160 kts 26°
2026-04-18 10:26 51.08896 -0.92798 5282 ft 154 kts 27°
2026-04-18 10:27 51.09792 -0.91930 5249 ft 147 kts 25°
2026-04-18 10:27 51.10634 -0.91075 5249 ft 140 kts 30°
2026-04-18 10:27 51.11433 -0.90250 5255 ft 137 kts 28°
2026-04-18 10:27 51.12227 -0.89446 5256 ft 134 kts 26°
2026-04-18 10:28 51.13016 -0.88672 5252 ft 132 kts 26°
2026-04-18 10:28 51.13723 -0.87752 5254 ft 131 kts 37°
2026-04-18 10:28 51.14432 -0.86779 5108 ft 141 kts 37°
2026-04-18 10:28 51.15191 -0.85754 5007 ft 144 kts 36°
2026-04-18 10:29 51.15963 -0.84719 4905 ft 145 kts 37°
2026-04-18 10:29 51.16716 -0.83702 4918 ft 139 kts 36°
2026-04-18 10:29 51.17440 -0.82753 4800 ft 144 kts 37°
2026-04-18 10:29 51.18147 -0.81771 4759 ft 143 kts 37°
2026-04-18 10:30 51.18915 -0.80744 4578 ft 149 kts 38°
2026-04-18 10:30 51.19729 -0.79701 4431 ft 150 kts 37°
2026-04-18 10:30 51.20547 -0.78646 4263 ft 152 kts 36°
2026-04-18 10:30 51.21375 -0.77598 4111 ft 152 kts 33°
2026-04-18 10:31 51.22206 -0.76563 3961 ft 154 kts 36°
2026-04-18 10:31 51.23051 -0.75469 3752 ft 157 kts 33°
2026-04-18 10:31 51.23904 -0.74363 3494 ft 161 kts 39°
2026-04-18 10:31 51.24757 -0.73275 3402 ft 154 kts 34°
2026-04-18 10:32 51.25534 -0.72037 3152 ft 159 kts 45°
2026-04-18 10:32 51.26261 -0.70763 3020 ft 155 kts 51°
2026-04-18 10:32 51.26866 -0.69302 2795 ft 157 kts 56°
2026-04-18 10:32 51.27403 -0.67826 2612 ft 156 kts 69°
2026-04-18 10:33 51.27818 -0.66235 2449 ft 154 kts 66°
2026-04-18 10:33 51.28350 -0.64760 2254 ft 154 kts 58°
2026-04-18 10:33 51.28908 -0.63309 2116 ft 152 kts 58°
2026-04-18 10:33 51.29496 -0.61932 2035 ft 146 kts 57°
2026-04-18 10:34 51.30064 -0.60657 2027 ft 138 kts 39°
2026-04-18 10:34 51.30922 -0.60100 2035 ft 132 kts 358°
2026-04-18 10:34 51.31767 -0.60433 2038 ft 123 kts 322°
2026-04-18 10:34 51.32253 -0.61458 2042 ft 113 kts 279°
2026-04-18 10:35 51.32337 -0.62662 2038 ft 107 kts 269°
2026-04-18 10:35 51.32348 -0.63843 2038 ft 106 kts 260°
2026-04-18 10:35 51.32186 -0.64972 2047 ft 103 kts 241°
2026-04-18 10:35 51.31688 -0.65739 2041 ft 100 kts 210°
2026-04-18 10:36 51.31100 -0.66352 2031 ft 101 kts 228°
2026-04-18 10:36 51.30844 -0.67400 1780 ft 104 kts 254°
2026-04-18 10:36 51.30648 -0.68481 1536 ft 100 kts 243°
2026-04-18 10:36 51.30326 -0.69409 1379 ft 89 kts 240°
2026-04-18 10:37 51.30040 -0.70263 1253 ft 86 kts 240°
2026-04-18 10:37 51.29759 -0.71109 1161 ft 86 kts 238°
2026-04-18 10:37 51.29502 -0.71877 1087 ft 68 kts 240°
2026-04-18 10:37 51.29266 -0.72530 947 ft 71 kts 243°
2026-04-18 10:38 51.29039 -0.73253 820 ft 72 kts 251°
2026-04-18 10:38 51.28805 -0.73972 709 ft 72 kts 245°
2026-04-18 10:38 51.28559 -0.74678 583 ft 74 kts 250°
2026-04-18 10:38 51.28331 -0.75403 488 ft 71 kts 252°
2026-04-18 10:39 51.28099 -0.76083 383 ft 70 kts 251°
2026-04-18 10:39 51.27874 -0.76748 268 ft 67 kts 250°
2026-04-18 10:39 51.27689 -0.77286 229 ft 40 kts 240°
2026-04-18 10:39 51.27598 -0.77580 230 ft 21 kts 243°
2026-04-18 10:40 51.27530 -0.77786 226 ft 20 kts 242°
2026-04-18 10:40 51.27486 -0.77921 226 ft 6 kts 239°
2026-04-18 10:40 51.27486 -0.78003 225 ft 9 kts 311°
2026-04-18 10:40 51.27534 -0.78067 225 ft 9 kts 320°
2026-04-18 10:41 51.27582 -0.78132 223 ft 10 kts 318°
2026-04-18 10:41 51.27635 -0.78199 222 ft 10 kts 322°
2026-04-18 10:41 51.27698 -0.78163 219 ft 10 kts 34°
2026-04-18 10:41 51.27748 -0.78124 219 ft 7 kts 340°
2026-04-18 10:42 51.27774 -0.78160 219 ft 0 kts 303°